STARLINK-3997 (52609 NORAD) Tracking and Keplerian Element Data

This shows tracking and keplerian element data for the satellite.

Feedback or suggestion? Click here.




ElementValue
Catalog52609
NameSTARLINK-3997
Epoch Orbit130
Epoch Day192.91667824
Epoch Year2022
RAAN160.2223
Inclination53.2175
Eccentricity0.0001661
Argument of Perigee45.2757
Mean Anonmoly264.6931
Mean Motion15.16336937
Decay Rate-0.00719923
L11 52609U 22052M 22192.91667824 -.00719923 00000+0 -39373-1 0 9990
L22 52609 53.2175 160.2223 0001661 45.2757 264.6931 15.16336937 1306

Live tracking and technical data element details for STARLINK-3997 (NORAD 52609). STARLINK-3997 can be tracked NOW for your location showing map with azimuth and elevation plus other details from your city location.

Track the satellite on the map from your city or location and see movement details for azimuth, elevation, latitude, longitude, range, height, and movement on the map or in text.







IsCatalogInMostPopularTable: catalog: 52609, numindb: 5
Update: records affected: 1



GetName: 52609 STARLINK-3997

Hit Count: updated at: Sun, 14 Aug 2022 00:40:47 GMT